Weather History for KRTN - February, 2014

Change the Weather History Date:

Friday, February 7, 2014

  Actual Average (KTAD) Record (KTAD)
Temperature  
Mean Temperature 29 °F 34 °F  
Max Temperature 46 °F 48 °F 75 °F (2015)
Min Temperature 12 °F 19 °F -14 °F (1989)
Degree Days  
Heating Degree Days 36 32  
Month to date heating degree days 224  
Since 1 July heating degree days 3506  
Cooling Degree Days 0 0  
Month to date cooling degree days 0  
Year to date cooling degree days 0  
Moisture  
Dew Point 14 °F    
Average Humidity 62    
Maximum Humidity 92    
Minimum Humidity 24    
Precipitation  
Precipitation 0.00 in 0.01 in 0.33 in (1997)
Month to date precipitation 0.10  
Year to date precipitation 0.50  
Sea Level Pressure  
Sea Level Pressure 29.94 in    
Wind  
Wind Speed 5 mph (WNW)    
Max Wind Speed 15 mph    
Max Gust Speed 18 mph    
Visibility 10 miles    
Events      
T = Trace of Precipitation, MM = Missing Value Source: NWS Daily Summary

Daily Weather History Graph

Daily Weather History Graph

Search for Another Location

Airport or City:

Trip Planner

Search our weather history database for the weather conditions in past years. The results will help you decide how hot, cold, wet, or windy it might be!

Date:

Astronomy

Feb. 07, 2014 Rise Set
Actual Time 6:54 AM MST 5:30 PM MST
Civil Twilight 6:27 AM MST 5:57 PM MST
Nautical Twilight 5:57 AM MST 6:27 PM MST
Astronomical Twilight 5:26 AM MST 6:57 PM MST
Moon 11:44 AM MST (2/7) 1:11 AM MST (2/7)
Length of Visible Light 11h 29m
Length of Day
10h 35m
First Quarter, 60% of the Moon is Illuminated
Feb 7
First Quarter
Feb 14
Full
Feb 22
Last Quarter
Mar 1
New
Mar 8
First Quarter

Hourly Weather History & Observations

Time (MST) Temp. Windchill Dew Point Humidity Pressure Visibility Wind Dir Wind Speed Gust Speed Precip Events Conditions
12:53 AM 16.0 °F - 12.9 °F 88% 30.05 in 10.0 mi Calm Calm - N/A   Overcast
1:53 AM 16.0 °F 10.4 °F 12.9 °F 88% 30.04 in 10.0 mi NE 3.5 mph - N/A   Mostly Cloudy
2:53 AM 14.0 °F 5.1 °F 10.9 °F 88% 30.02 in 10.0 mi NNE 5.8 mph - N/A   Partly Cloudy
3:53 AM 14.0 °F 5.1 °F 10.9 °F 88% 30.01 in 10.0 mi NE 5.8 mph - N/A   Clear
4:53 AM 14.0 °F 3.9 °F 10.9 °F 88% 30.00 in 10.0 mi NE 6.9 mph - N/A   Clear
5:53 AM 12.0 °F 0.5 °F 10.0 °F 92% 29.99 in 10.0 mi NE 8.1 mph - N/A   Clear
6:53 AM 12.9 °F 2.6 °F 10.0 °F 88% 29.99 in 10.0 mi ENE 6.9 mph - N/A   Clear
7:53 AM 14.0 °F 6.5 °F 10.9 °F 88% 30.00 in 10.0 mi NNE 4.6 mph - N/A   Clear
8:53 AM 18.0 °F 11.1 °F 12.9 °F 81% 30.00 in 10.0 mi NE 4.6 mph - N/A   Clear
9:53 AM 24.1 °F - 17.1 °F 75% 29.98 in 10.0 mi Calm Calm - N/A   Clear
10:53 AM 27.0 °F 21.6 °F 17.1 °F 66% 29.97 in 10.0 mi ESE 4.6 mph - N/A   Partly Cloudy
11:53 AM 30.9 °F 22.8 °F 19.0 °F 61% 29.93 in 10.0 mi SW 9.2 mph - N/A   Clear
12:53 PM 33.1 °F 26.1 °F 21.0 °F 61% 29.87 in 10.0 mi SW 8.1 mph - N/A   Scattered Clouds
1:53 PM 37.9 °F 33.5 °F 24.1 °F 57% 29.83 in 10.0 mi SSW 5.8 mph - N/A   Mostly Cloudy
2:53 PM 45.0 °F 39.3 °F 14.0 °F 29% 29.80 in 10.0 mi West 11.5 mph 18.4 mph N/A   Overcast
3:53 PM 46.9 °F - 12.0 °F 24% 29.81 in 10.0 mi West 12.7 mph - N/A   Partly Cloudy
4:53 PM 44.1 °F 38.1 °F 12.9 °F 28% 29.84 in 10.0 mi WSW 11.5 mph - N/A   Clear
5:53 PM 39.0 °F 30.6 °F 12.9 °F 34% 29.89 in 10.0 mi West 15.0 mph - N/A   Clear
6:53 PM 34.0 °F - 14.0 °F 44% 29.96 in 10.0 mi Calm Calm - N/A   Clear
7:53 PM 33.1 °F 27.7 °F 14.0 °F 46% 29.98 in 10.0 mi South 5.8 mph - N/A   Clear
8:53 PM 36.0 °F 29.0 °F 12.9 °F 39% 29.94 in 10.0 mi West 9.2 mph - N/A   Clear
9:53 PM 30.0 °F 20.5 °F 14.0 °F 51% 29.94 in 10.0 mi WNW 11.5 mph - N/A   Clear
10:53 PM 32.0 °F 25.6 °F 12.9 °F 45% 29.92 in 10.0 mi SSE 6.9 mph - N/A   Clear
11:53 PM 30.9 °F 26.2 °F 12.9 °F 47% 29.91 in 10.0 mi SW 4.6 mph - N/A   Clear